Location: Amarillo Post Office Jordan Station
(35.1907°N, 101.9342°W)
Time: 13:23:01
(UTC+00:00)

Cosmos 44 Rocket - Pass Details

Date: 24 January 2021
Orbit: 637 x 753 km, 65.1° (Epoch: 03 March)

Event Time Altitude Azimuth Distance (km) Brightness Sun altitude
Exits shadow 12:47:12 17° 304° (NW) 1,816 4.9 -13.4°
Maximum altitude 12:50:31 35° 248° (WSW) 1,197 4.1 -12.7°
Drops below altitude 10° 12:55:10 10° 184° (S) 2,244 6.1 -11.8°
Sets 12:57:41 0° 175° (S) 3,151 7.0 -11.3°
